カタログに戻る

FENGYUN 1C DEB

運用中SSO
NORAD 30013·DEBRIS·🇨🇳 China

打ち上げ May 10, 1999 から Taiyuan Satellite Launch Center

Loading…

次のパス (今後24時間)

TLE

最新Source: Space-Track

元期: Sep 14, 2026, 08:54 UTC

1 30013U 99025MN  26257.37150344  .00000134  00000-0  14251-3 0  9995
2 30013  99.5582 288.6174 0127955  31.0176 342.0804 13.87980031995059

AllMySatでFENGYUN 1C DEBをリアルタイム追跡

Download on the App Store